Miscellaneous Local Product
Issued by NWS Hastings, NE

Home | Current Version | Previous Version | Text Only | Print | Product List | Glossary On
Versions: 1 2 3 4 5 6 7 8 9 10 11 12 13 14 15 16 17 18 19 20 21 22 23 24 25 26 27 28 29 30 31 32 33 34 35 36 37 38 39 40 41 42 43 44 45 46 47 48 49 50
000
AXUS43 KGID 100502
MISGRI

GID CWA HOURLY WEATHER ROUNDUP
NATIONAL WEATHER SERVICE HASTINGS NE
1100 PM CST FRI DEC 09 2016

NOTE: "FAIR" INDICATES FEW OR NO CLOUDS BELOW 12,000 FEET WITH NO
SIGNIFICANT WEATHER AND/OR OBSTRUCTIONS TO VISIBILITY.

...SOUTH CENTRAL NEBRASKA...

CITY           SKY/WX    TMP DP  RH WIND       PRES   REMARKS
GRAND ISLAND   CLOUDY    18  14  84 SE7       30.40S WCI   9
HASTINGS       CLOUDY    18  12  77 SE8       30.39F WCI   8
KEARNEY        CLOUDY    12   7  79 E7        30.37S WCI   2
ORD            CLOUDY    12   6  77 CALM      30.37S
YORK           CLOUDY    19  14  79 S6        30.43R WCI  11
AURORA         CLOUDY    17  11  80 S3        30.41R
LEXINGTON      CLOUDY    15  10  82 E7        30.33S WCI   5
HOLDREGE       CLOUDY    12   8  84 SE6       30.34S WCI   2
HEBRON         CLOUDY    15  11  85 CALM      30.44R

...NEBRASKA PANHANDLE...

CITY           SKY/WX    TMP DP  RH WIND       PRES   REMARKS
CHADRON        LGT SNOW   4  -1  80 NE8       30.27S WCI  -9
ALLIANCE       CLOUDY     7   3  84 NE6       30.19F WCI  -3
SCOTTSBLUFF    CLOUDY    14   5  67 E12       30.17F WCI   0
SIDNEY         CLOUDY    19  12  74 SE3       30.17R

...WESTERN AND NORTH CENTRAL NEBRASKA...

CITY           SKY/WX    TMP DP  RH WIND       PRES   REMARKS
VALENTINE      CLOUDY     5   1  83 N7        30.38R WCI  -7
AINSWORTH      CLOUDY     9   7  90 NE7       30.36S WCI  -2
ONEILL         FLURRIES  12   9  90 NE9       30.42S WCI  -1
BROKEN BOW     CLOUDY    15  11  83 CALM      30.32F
IMPERIAL       CLOUDY    20  13  74 E8        30.23F WCI  10
NORTH PLATTE   CLOUDY    15  11  83 E6        30.30R WCI   6
MCCOOK         CLOUDY    15  10  80 E8        30.28F WCI   4

...EASTERN NEBRASKA...

CITY           SKY/WX    TMP DP  RH WIND       PRES   REMARKS
NORFOLK        CLOUDY    17  10  74 SE3       30.44R
SO SIOUX CITY  FLURRIES  20  11  68 E3        30.51R
TEKAMAH        CLOUDY    20  13  74 CALM      30.50R
COLUMBUS       CLOUDY    19  12  73 E3        30.46R
ALBION         CLOUDY    12   8  83 E8        30.41F WCI   1
OMAHA EPPLEY   CLOUDY    22  12  65 SE7       30.50S WCI  13
OFFUTT AFB     CLOUDY    22  14  71 E5        30.48F WCI  16
MILLARD        CLOUDY    25  14  64 CALM      30.49S
LINCOLN        CLOUDY    23  14  68 E3        30.49R
NEBRASKA CITY  CLOUDY    23  10  57 SE5       30.47F WCI  17
BEATRICE       CLOUDY    25  15  64 SE3       30.45S
FALLS CITY     CLOUDY    25  14  63 SE3       30.49S

...NORTHERN KANSAS...

CITY           SKY/WX    TMP DP  RH WIND       PRES   REMARKS
GOODLAND       CLOUDY    25  20  81 S14       30.18F WCI  13
HILL CITY      CLOUDY    20  12  71 SE5       30.34R WCI  13
NORTON         PTCLDY    18  10  73 E6        30.31S WCI   9
PHILLIPSBURG   CLEAR     16  10  79 NE7       30.38R WCI   6
SMITH CENTER   CLEAR     12   9  85 E7        30.40R WCI   2
BELOIT         CLEAR     19  12  73 SE6       30.41S WCI  11
HAYS           CLOUDY    17  12  80 SE7       30.37R WCI   8
RUSSELL        CLOUDY    19  12  74 S10       30.36R WCI   7
CONCORDIA      CLOUDY    21  16  81 SE3       30.42S
SALINA         CLOUDY    28  15  58 SE8       30.44S WCI  20
TOPEKA         CLOUDY    28  17  63 SE6       30.50S WCI  22



USA.gov is the U.S. government's official web portal to all federal, state and local government web resources and services.